GEFSSGP_con_cape1000_000.txt.gz
Probability
0 0 0 0 0 0 0 0 0 23 0 0 0 0 0 0 0 13 0 0 0 0 0 0 100 100 100 100 100 100 100 100 100 100 100 94 94 94 90 74 61 81 77 81 94 100 100 100 100
0 0 0 0 0 0 0 0 32 29 0 0 0 0 0 0 16 32 6 0 6 16 3 0 100 100 100 100 100 100 100 100 100 100 100 100 100 100 100 94 74 65 42 42 48 90 100 100 100
0 0 0 0 0 0 0 0 3 0 0 0 0 0 0 0 10 23 6 0 35 65 13 19 100 100 100 100 100 100 100 100 100 100 100 100 100 100 97 90 71 71 74 68 90 97 97 100 100
0 0 0 0 0 0 0 0 0 0 0 0 0 0 0 0 19 16 3 0 32 90 26 100 100 100 100 100 100 100 100 100 100 100 100 100 100 100 97 94 87 87 87 94 97 100 97 94 94
0 0 0 0 0 0 0 0 0 0 3 35 0 0 0 10 6 6 0 0 29 90 71 100 100 100 100 100 100 100 100 100 100 100 100 100 100 100 100 97 94 84 84 100 100 94 94 97 97
0 0 0 0 0 0 0 0 0 0 6 13 3 0 3 65 35 23 0 0 16 94 87 100 100 100 100 100 100 100 100 100 100 100 100 100 100 100 94 97 100 100 100 84 84 84 84 84 97
0 0 0 0 0 0 0 3 0 19 26 68 0 0 74 65 35 35 13 0 6 90 90 77 97 100 100 100 100 100 100 100 100 100 100 100 100 100 100 100 100 100 100 100 100 94 90 100 100
0 0 0 0 0 0 0 0 0 3 61 10 0 3 100 84 84 52 29 6 3 84 81 71 29 71 100 100 100 100 100 100 100 100 100 100 100 100 100 100 100 100 100 100 100 100 100 100 100
0 0 0 0 0 0 0 0 0 0 6 13 0 0 81 97 100 94 71 19 26 58 87 61 3 10 16 19 100 100 100 100 100 100 100 100 100 100 100 100 100 100 100 100 100 100 100 100 100
0 0 0 0 0 0 0 0 0 0 0 10 6 13 77 100 100 97 81 26 16 39 90 97 61 42 13 0 10 68 45 77 100 100 100 100 100 100 100 100 100 100 100 100 100 100 100 100 84
0 0 0 0 0 0 0 0 0 0 0 0 0 6 100 100 100 97 71 35 19 45 81 97 100 100 97 52 29 74 77 100 100 100 97 100 100 100 100 100 100 100 100 100 100 100 100 39 74
0 0 0 0 0 0 0 0 0 0 0 0 0 74 100 100 100 94 77 77 81 94 90 97 100 100 100 97 94 97 100 100 100 100 100 100 100 100 97 77 10 68 97 97 97 94 84 71 97
0 0 0 0 0 0 0 0 0 0 0 0 13 81 100 100 100 100 94 94 97 100 94 87 90 97 100 100 100 100 100 100 100 100 100 100 97 97 81 87 94 100 97 97 94 94 84 100 100
0 0 0 0 0 0 0 0 0 0 0 0 26 81 100 100 100 100 100 97 81 87 94 94 100 100 100 100 100 100 100 100 100 100 100 100 100 97 81 77 97 100 94 94 97 97 100 100 100
0 0 0 0 0 0 0 0 0 0 0 0 52 94 100 100 100 100 100 94 90 94 100 100 100 100 100 100 100 100 100 100 100 100 97 100 100 100 100 100 97 100 100 100 100 100 100 97 100
0 0 0 0 0 0 0 0 0 3 6 48 81 81 100 97 61 77 90 100 100 100 100 100 100 100 100 100 100 100 100 97 97 97 97 100 100 100 100 100 97 100 100 100 100 100 94 97 100
0 0 0 0 0 0 0 0 26 26 48 90 90 29 26 3 3 3 16 87 97 97 97 87 68 81 97 97 100 100 100 97 74 42 84 90 87 87 100 100 100 100 100 100 100 97 100 100 97
0 0 0 0 0 0 0 0 35 77 87 97 100 61 6 3 3 13 35 68 77 68 48 39 39 48 61 74 97 97 94 94 84 71 84 77 65 35 32 48 77 100 100 100 100 100 100 100 97
0 0 0 0 0 0 0 0 45 87 97 100 100 100 74 13 3 3 6 6 23 13 13 3 6 26 35 74 97 97 94 84 81 81 71 45 3 0 0 13 16 65 84 100 97 90 84 77 29
0 0 0 0 0 0 0 0 19 52 52 19 68 87 90 74 32 29 48 48 16 6 3 0 0 10 16 77 97 90 68 55 58 55 52 6 0 0 3 6 13 19 19 55 77 58 61 61 19
0 0 0 0 0 0 0 0 0 6 0 0 0 0 29 35 39 26 0 0 0 0 3 6 6 3 6 16 45 42 10 0 0 3 0 0 0 0 0 10 3 3 3 23 16 16 13 0 0
0 0 0 0 0 0 0 0 0 0 0 0 0 0 0 0 0 0 0 0 0 0 0 10 13 10 3 6 10 6 3 3 0 0 3 0 0 0 0 0 0 0 0 0 0 0 0 0 0
0 0 0 0 0 0 0 0 0 0 0 0 0 0 0 0 0 0 0 0 0 0 6 42 55 55 23 3 3 0 0 0 0 0 0 0 0 0 0 0 0 0 0 0 0 0 0 0 0
0 0 0 0 0 0 0 0 0 0 0 0 0 0 0 0 0 0 0 0 0 0 3 3 6 16 23 6 3 6 10 0 0 0 0 0 0 0 0 0 0 0 0 0 0 0 0 0 0
0 0 0 0 0 0 0 0 0 0 0 0 0 0 0 0 0 0 0 0 0 0 0 0 0 3 10 16 3 3 3 0 0 0 0 0 0 0 0 0 0 0 0 0 0 0 0 0 0
0 0 0 0 0 0 0 0 0 0 0 0 0 0 0 0 0 0 0 0 0 0 0 0 0 16 6 10 0 0 0 0 3 0 0 0 0 0 0 0 0 0 0 0 0 0 0 0 0
0 0 0 0 0 0 0 0 0 0 0 0 0 0 0 0 0 0 0 0 0 0 0 0 19 19 6 0 0 3 3 6 3 0 0 0 0 0 0 0 0 0 0 0 0 0 0 0 0
0 0 0 0 0 0 0 0 0 0 0 0 0 0 0 0 0 0 0 0 0 0 0 3 0 0 0 0 0 23 26 0 0 0 0 0 0 0 0 0 0 0 0 0 0 0 0 0 0
0 0 0 0 0 0 0 0 0 0 0 0 0 0 0 0 0 0 0 0 0 0 0 0 0 0 0 0 0 0 3 0 0 0 0 0 0 0 0 0 0 0 0 0 0 0 0 0 0
0 0 0 0 0 0 0 0 0 0 0 0 0 0 0 0 0 0 0 0 0 0 0 0 0 0 0 0 0 0 0 0 0 0 0 0 0 0 0 0 0 0 0 0 0 0 0 0 0

GEFSSGP_con_cape1000_006.txt.gz
Probability
0 0 0 0 3 23 3 0 3 0 0 0 0 0 0 0 10 87 0 0 0 0 0 97 100 100 100 100 100 100 100 97 94 94 100 97 74 29 6 13 39 35 19 32 48 52 55 58 26
0 0 0 0 0 0 0 3 3 0 0 0 0 0 0 0 0 0 0 0 0 0 0 32 100 100 100 100 100 100 100 100 100 100 100 97 68 13 3 6 3 10 6 10 19 32 39 42 29
0 0 0 0 0 0 0 0 0 0 0 0 0 0 0 0 0 0 0 0 0 0 0 97 100 100 100 100 100 100 100 100 100 100 100 100 94 84 29 13 3 0 0 0 3 16 13 29 68
0 0 0 0 0 0 0 0 0 0 0 0 0 0 13 0 0 0 0 3 3 0 3 97 100 100 100 100 100 100 100 100 100 100 100 100 97 87 55 35 10 0 0 3 6 29 32 16 39
0 0 0 0 0 0 0 0 0 0 0 0 0 6 81 0 0 0 0 52 19 6 26 42 100 100 100 100 100 100 100 100 100 100 100 100 100 97 71 45 32 23 13 19 68 65 42 32 19
0 0 0 0 0 0 0 0 0 0 0 0 0 29 100 0 0 0 26 81 55 39 42 29 100 100 100 100 100 100 100 100 100 100 100 100 100 100 97 84 68 55 42 42 87 58 39 32 52
0 0 0 0 0 0 0 0 0 0 0 0 0 19 100 0 0 0 19 94 65 55 74 35 100 100 100 100 100 100 100 100 100 100 100 100 97 100 97 94 90 100 100 97 81 71 58 71 100
0 0 0 0 0 0 0 0 0 0 0 0 0 32 100 42 0 0 6 65 90 77 81 55 77 100 100 100 100 100 100 100 100 100 100 100 100 100 100 100 100 100 100 100 100 100 100 100 100
0 0 0 0 0 0 0 0 0 0 0 0 0 35 100 68 0 0 3 32 97 100 97 26 45 100 97 97 100 100 100 100 100 100 100 100 100 100 100 100 100 100 100 100 100 100 100 100 100
0 0 0 0 0 0 0 0 0 0 0 0 0 71 100 94 65 26 6 23 94 100 94 55 45 97 68 23 97 97 94 100 100 100 100 100 100 100 100 100 100 100 100 100 100 100 100 100 97
0 0 0 0 0 0 0 0 0 0 0 0 16 90 100 100 100 100 61 74 100 100 100 55 58 100 32 74 100 87 58 97 100 97 100 100 100 100 100 100 100 100 100 100 100 100 100 100 100
0 0 0 0 0 0 0 0 0 0 0 0 16 87 100 100 100 100 100 94 100 100 100 90 71 100 100 87 90 100 68 90 90 100 100 100 100 100 100 100 100 100 100 100 100 100 100 100 100
0 0 0 0 0 0 0 0 0 0 0 0 6 52 77 87 100 100 100 100 100 100 100 100 100 100 100 100 100 100 100 100 100 100 100 100 100 100 100 100 100 100 100 100 100 100 100 100 100
0 0 0 0 0 0 0 0 0 0 0 3 3 45 65 84 100 100 100 100 100 100 100 100 100 100 100 100 100 100 100 100 100 100 100 100 100 100 100 100 100 100 100 100 100 100 100 100 100
0 0 0 0 0 0 0 0 0 0 0 10 42 74 100 100 100 100 100 100 100 100 100 100 100 100 100 100 100 100 100 100 100 100 100 100 100 100 100 100 100 100 100 100 100 100 100 100 100
0 0 0 0 0 0 0 0 0 0 6 29 39 74 100 100 100 100 100 100 100 100 100 100 100 100 100 100 100 100 100 100 100 100 100 100 100 100 100 100 100 100 100 100 100 100 100 100 100
0 0 0 0 0 0 0 0 0 0 6 35 32 55 94 100 100 100 100 100 100 100 100 100 100 100 100 100 100 100 100 100 100 100 100 100 100 100 100 100 100 100 100 100 100 100 100 100 97
0 0 0 0 0 0 0 0 0 0 3 13 35 35 71 94 100 100 100 100 100 100 100 100 100 100 97 97 100 100 100 100 100 100 100 100 100 100 100 100 100 100 100 100 100 100 100 100 94
0 0 0 0 0 0 0 0 0 0 0 3 19 68 90 100 97 97 100 100 100 100 100 100 100 94 90 87 84 87 100 100 100 100 100 100 100 97 94 90 94 97 94 90 94 97 100 97 90
0 0 0 0 0 0 0 0 0 0 0 6 23 68 94 100 100 100 100 100 97 97 100 100 100 97 94 90 97 90 94 94 97 97 97 94 94 97 84 84 74 71 81 90 94 100 94 87 74
0 0 0 0 0 0 0 0 0 0 0 6 19 35 65 90 94 90 90 84 77 77 71 52 77 87 94 97 81 77 87 90 81 87 94 94 94 90 71 65 55 48 58 65 90 94 77 65 52
0 0 0 0 0 0 0 0 0 3 3 3 0 16 16 6 6 13 13 13 6 6 3 19 65 100 100 100 94 84 77 61 81 87 84 97 94 84 71 45 32 35 23 45 58 55 42 29 10
0 0 0 0 0 0 0 0 0 13 6 0 0 0 0 0 0 0 0 0 0 0 0 0 16 61 94 100 100 100 90 71 52 74 81 87 74 65 45 29 26 23 13 23 19 10 13 6 0
0 0 0 0 0 0 0 0 0 6 3 0 0 0 0 0 0 0 0 0 0 0 0 0 6 42 97 100 97 97 94 94 77 77 71 71 65 45 29 16 10 6 10 6 6 0 0 0 0
0 0 0 0 0 0 0 0 0 0 3 0 0 0 0 0 0 0 0 0 0 0 3 3 39 77 84 65 61 61 61 61 71 74 71 68 52 23 10 3 3 3 6 6 3 0 0 0 0
0 0 0 0 0 0 0 0 0 0 0 0 0 0 0 0 0 0 3 3 0 0 0 3 23 61 42 29 26 29 35 32 29 61 77 55 26 13 6 0 0 0 0 0 0 3 0 0 0
0 0 0 0 0 0 0 0 0 0 0 0 0 0 0 0 0 0 0 0 0 0 0 3 19 26 10 10 13 19 13 16 23 35 45 39 10 0 0 0 0 0 0 0 3 3 0 0 0
0 0 0 0 0 0 0 0 0 0 0 0 0 0 0 0 0 0 0 0 0 0 3 10 6 16 6 3 0 0 3 0 6 13 13 10 3 0 0 0 0 0 0 0 0 0 0 0 0
0 0 0 0 0 0 0 0 0 0 0 0 0 0 0 0 0 0 0 0 0 3 3 0 13 16 6 3 6 3 0 0 0 0 0 0 0 0 0 0 0 0 0 0 0 0 0 0 0
0 0 0 0 0 0 0 0 0 0 0 0 0 0 0 0 0 0 0 0 0 0 0 0 3 13 10 0 0 0 0 0 0 0 0 0 0 0 0 0 0 0 0 0 0 0 0 0 0

GEFSSGP_con_cape1000_012.txt.gz
Probability
0 0 0 0 0 0 0 0 0 0 0 0 0 0 0 0 0 0 0 0 0 10 97 100 100 100 100 100 94 84 94 100 97 97 97 97 94 94 90 97 97 97 84 71 81 74 32 13 3
0 0 0 0 0 0 0 0 0 0 0 0 0 0 0 0 0 0 0 0 0 39 100 100 100 100 100 100 100 94 97 100 100 97 97 90 84 74 71 81 84 68 61 48 39 32 26 13 6
0 0 0 0 0 0 0 0 0 0 0 0 0 0 0 0 0 0 0 0 3 45 97 100 100 100 100 100 100 100 100 100 100 100 97 87 71 35 32 32 39 29 23 13 16 16 19 32 26
0 0 0 0 0 0 0 0 0 0 0 0 0 0 0 0 0 0 0 0 0 42 100 100 100 100 100 100 100 100 100 100 100 100 100 97 90 71 52 32 23 23 19 23 32 32 23 32 58
0 0 0 0 0 0 0 0 0 0 0 10 3 0 0 0 0 0 0 0 0 52 100 100 100 100 100 100 100 100 100 100 100 100 100 100 100 97 71 68 48 45 35 32 42 77 77 58 45
0 0 0 0 0 0 0 0 0 0 16 23 6 0 0 0 0 0 0 0 0 29 100 100 100 100 100 100 100 100 100 100 100 100 100 100 100 100 94 81 65 61 61 68 90 100 97 97 90
0 0 0 0 0 0 0 0 0 0 0 39 45 0 0 0 0 0 0 0 0 3 94 100 100 100 100 100 100 100 100 100 100 100 100 100 100 100 100 100 100 90 87 87 94 100 97 100 100
0 0 0 0 0 0 0 0 0 0 3 45 29 0 0 0 0 0 0 0 0 0 55 100 100 100 100 100 100 100 100 100 100 100 100 100 100 100 100 100 100 100 100 100 100 100 100 100 100
0 0 0 0 0 0 0 0 0 3 16 55 87 3 0 0 0 6 3 0 0 0 0 71 87 87 100 100 100 100 100 100 100 100 100 100 97 97 100 100 100 100 100 100 100 100 100 100 100
0 0 0 0 0 0 0 0 0 0 65 90 39 3 0 13 23 32 32 26 13 0 0 29 39 52 65 100 100 100 100 100 100 100 100 100 94 52 94 100 100 100 100 100 100 100 100 100 100
0 0 0 0 0 0 0 0 0 10 45 71 3 0 0 13 16 32 71 74 52 10 0 3 26 32 39 48 52 87 94 84 94 94 84 65 55 42 87 71 90 100 100 100 100 100 100 100 97
0 0 0 0 0 0 0 0 0 3 26 61 6 0 0 3 6 13 42 84 81 39 10 0 39 19 16 0 13 55 48 52 77 71 48 35 35 45 45 52 55 81 94 100 87 94 94 90 74
0 0 0 0 0 0 0 0 0 0 32 58 39 29 13 0 3 3 10 77 94 65 32 10 77 45 19 0 3 23 13 16 48 35 23 32 52 71 81 84 65 84 87 71 77 81 84 74 68
0 0 0 0 0 0 0 0 0 10 55 90 77 68 68 45 32 10 23 55 90 87 55 19 65 48 6 16 23 23 26 23 19 26 19 16 42 68 84 84 55 68 71 65 65 65 61 61 45
0 0 0 0 0 0 0 0 0 32 77 97 97 100 100 100 100 87 58 61 81 87 87 68 58 52 29 39 52 74 94 84 77 58 48 61 65 77 87 87 87 90 68 32 32 35 19 32 13
0 0 0 0 0 0 0 3 16 55 94 100 100 100 100 100 100 100 94 94 94 87 87 97 94 90 77 84 81 87 94 100 100 94 94 97 100 100 100 97 100 100 71 48 29 23 29 16 10
0 0 0 0 0 0 0 3 26 58 90 97 100 97 97 97 97 97 97 94 94 100 100 97 87 87 84 81 74 74 81 81 90 94 94 100 100 100 97 100 97 94 74 71 58 23 6 10 3
0 0 0 0 0 0 0 6 23 35 61 81 100 94 94 87 90 94 97 97 97 100 100 94 77 39 23 35 39 39 35 45 55 65 74 90 97 100 100 94 94 90 94 74 61 29 13 6 6
0 0 0 0 0 0 0 3 6 16 32 65 81 81 97 97 87 77 90 94 97 100 100 97 87 68 42 29 6 0 6 10 13 19 45 55 65 81 87 81 74 74 77 71 58 32 13 3 3
0 0 0 0 0 0 0 0 0 3 6 29 68 81 84 84 90 90 87 90 90 94 90 81 71 65 42 23 13 10 10 10 13 13 23 23 42 48 61 74 65 58 58 61 58 19 3 3 0
0 0 0 0 0 0 0 0 0 3 10 26 74 81 90 87 94 94 97 97 74 65 71 77 68 65 55 39 16 6 3 0 3 3 3 10 13 19 35 52 48 45 35 39 19 13 13 0 0
0 0 0 0 0 0 0 0 0 3 3 42 71 71 84 90 90 97 87 71 52 32 16 16 19 29 26 16 6 0 0 0 0 0 3 3 0 3 13 16 35 29 19 10 10 10 0 0 0
0 0 0 0 0 0 0 0 0 0 3 19 32 39 42 55 68 68 58 45 23 13 6 0 6 3 3 6 0 0 0 0 0 0 0 3 0 0 0 3 0 3 10 6 6 0 0 0 0
0 0 0 0 0 0 0 0 0 0 0 0 6 16 16 6 26 19 13 6 3 3 0 0 0 0 3 3 3 0 0 0 0 0 0 0 0 0 0 0 0 0 0 0 0 0 0 0 0
0 0 0 0 0 0 0 0 0 0 0 0 0 3 3 3 0 0 0 0 0 0 0 0 0 0 0 3 3 0 0 0 0 0 0 0 0 0 0 0 0 0 0 0 0 0 0 0 0
0 0 0 0 0 0 0 0 0 0 0 0 0 0 0 0 0 0 0 0 0 0 0 0 0 0 0 0 0 0 0 0 0 0 0 0 0 0 0 0 0 0 0 0 0 0 0 0 0
0 0 0 0 0 0 0 0 0 0 0 0 0 0 0 0 0 0 0 0 0 0 0 0 0 0 0 0 0 0 0 0 0 0 0 0 0 0 0 0 0 0 0 0 0 0 0 0 0
0 0 0 0 0 0 0 0 0 0 0 0 0 0 0 0 0 0 0 0 0 0 0 0 0 0 0 0 0 0 0 0 0 0 0 0 0 0 0 0 0 0 0 0 0 0 0 0 0
0 0 0 0 0 0 0 0 0 0 0 0 0 0 0 0 0 0 0 0 0 0 0 0 0 0 0 0 0 0 0 0 0 0 0 0 0 0 0 0 0 0 0 0 0 0 0 0 0
0 0 0 0 0 0 0 0 0 0 0 0 0 0 0 0 0 0 0 0 0 0 0 0 0 0 0 0 0 0 0 0 0 0 0 0 0 0 0 0 0 0 0 0 0 0 0 0 0

GEFSSGP_con_cape1000_018.txt.gz
Probability
0 0 0 0 0 0 0 0 0 0 0 0 0 0 0 0 0 0 0 0 0 10 97 97 97 90 71 58 77 87 97 100 100 100 100 100 100 100 97 97 100 97 77 35 23 3 13 45 68
0 0 0 0 0 0 0 0 0 0 0 0 0 0 0 0 0 0 0 0 0 65 90 84 97 94 84 68 71 87 97 100 100 100 100 100 100 100 87 68 77 65 71 77 42 16 10 3 3
0 0 0 0 0 0 0 0 0 0 0 0 0 0 0 0 0 0 0 0 10 74 90 71 94 94 90 77 90 90 97 100 100 100 100 97 90 90 68 55 52 52 42 55 52 42 26 19 10
0 0 0 0 0 0 0 0 0 0 0 0 0 0 0 0 0 0 0 3 26 84 90 77 100 97 97 94 94 97 100 100 100 100 97 97 87 71 42 45 32 26 23 16 19 35 45 45 48
0 0 0 0 0 0 0 0 0 0 3 0 0 0 0 0 0 0 0 6 35 81 87 87 100 100 100 97 97 97 100 100 100 97 100 100 100 84 65 65 74 68 61 68 77 84 87 81 61
0 0 0 0 0 0 0 0 0 0 16 0 0 0 0 0 0 0 3 10 39 81 84 94 100 100 100 97 97 97 100 100 100 100 100 100 100 100 100 100 97 87 94 100 100 97 100 100 100
0 0 0 0 0 0 0 0 0 6 23 3 0 0 0 0 0 0 3 10 52 90 94 94 100 100 100 100 100 100 100 100 100 100 100 100 100 100 100 100 100 100 100 100 100 100 100 100 100
0 0 0 0 0 0 0 0 0 6 26 29 0 0 0 0 0 0 3 19 65 97 97 97 100 100 100 100 100 100 100 100 100 100 100 100 100 100 100 100 100 100 100 100 100 100 100 100 100
0 0 0 0 0 0 0 0 0 10 77 84 6 0 0 0 0 0 3 13 61 97 100 100 100 100 100 100 100 100 100 100 100 100 100 100 100 100 100 100 100 100 100 100 100 100 100 100 100
0 0 0 0 0 0 0 0 0 35 74 68 0 0 0 0 0 0 0 0 19 68 97 100 97 100 100 100 100 100 100 100 100 100 100 100 100 97 100 100 100 100 100 100 100 100 100 100 100
0 0 0 0 0 0 0 0 3 16 55 45 3 0 0 0 0 0 0 0 0 13 77 97 90 90 100 100 94 100 100 100 100 100 100 100 100 94 100 100 100 100 100 100 100 100 100 100 100
0 0 0 0 0 0 0 0 0 0 0 6 6 0 0 0 0 6 6 0 0 0 16 84 97 90 87 84 71 77 97 97 97 97 100 94 84 74 74 77 81 81 81 90 90 97 100 100 100
0 0 0 0 0 0 0 0 0 0 3 10 32 26 6 6 10 10 19 26 3 0 6 19 90 94 94 81 68 65 90 94 94 90 90 90 90 94 58 58 65 68 71 84 97 100 100 100 100
0 0 0 0 0 0 0 0 3 13 6 13 39 32 39 42 39 55 68 58 58 52 26 23 68 77 77 87 77 71 81 90 81 84 90 84 90 94 71 45 39 68 77 90 100 100 97 97 97
0 0 0 0 0 0 0 3 10 23 29 23 42 52 58 55 39 58 90 90 87 90 77 48 52 48 48 58 58 61 52 58 48 58 55 74 68 71 71 42 52 68 81 84 94 97 100 94 97
0 0 0 0 0 0 0 3 13 35 42 48 65 77 81 77 65 45 61 97 94 94 90 61 90 74 58 52 58 58 61 65 71 68 68 74 74 71 71 71 74 81 84 87 97 94 90 94 87
0 0 0 0 0 0 0 3 42 65 84 84 90 97 97 97 97 94 87 87 90 94 94 90 94 94 90 68 68 65 52 48 48 48 45 61 71 84 84 87 94 97 90 94 94 97 87 81 77
0 0 0 0 0 0 3 19 55 81 100 100 100 100 100 100 100 97 94 100 100 100 100 94 97 97 90 71 42 35 26 23 23 19 16 26 19 45 52 55 71 74 87 94 87 84 77 74 74
0 0 0 0 0 0 6 26 35 58 97 100 97 100 100 100 94 94 94 100 100 97 94 90 87 74 26 23 16 13 16 6 6 6 6 6 3 10 13 19 32 39 55 58 74 74 74 74 55
0 0 0 0 0 0 0 3 10 32 55 84 94 97 97 87 90 90 94 94 90 94 97 71 55 35 16 10 3 0 0 0 0 0 0 0 0 3 10 10 16 23 26 26 45 55 61 48 45
0 0 0 0 0 0 0 0 0 3 23 29 65 87 81 87 77 84 87 84 90 81 77 74 45 26 10 3 0 0 0 0 0 0 0 0 0 0 0 0 0 10 13 19 29 39 48 52 32
0 0 0 0 0 0 0 0 0 0 26 55 65 81 81 81 87 77 87 87 84 68 48 45 35 29 13 0 0 0 0 0 0 0 0 0 0 0 0 0 0 0 3 6 10 16 26 29 32
0 0 0 0 0 0 0 0 0 0 23 48 77 87 87 90 84 77 77 68 58 35 23 19 10 6 3 0 0 0 0 0 0 0 0 0 0 0 0 0 0 0 0 3 6 10 13 16 19
0 0 0 0 0 0 0 0 0 0 3 19 52 71 84 84 87 77 77 58 35 13 3 3 0 0 0 0 0 0 0 0 0 0 0 0 0 0 0 0 0 0 0 0 0 3 3 10 6
0 0 0 0 0 0 0 0 0 0 0 0 26 55 55 45 39 52 48 35 10 3 3 0 0 0 0 0 0 0 0 0 0 0 0 0 0 0 0 0 0 0 0 0 0 3 3 6 3
0 0 0 0 0 0 0 0 0 0 0 0 0 6 10 6 6 3 0 0 0 0 0 0 0 0 0 0 0 0 0 0 0 0 0 0 0 0 0 0 0 0 0 0 0 0 0 0 0
0 0 0 0 0 0 0 0 0 0 0 0 0 0 0 0 0 0 0 0 0 0 0 0 0 0 0 0 0 0 0 0 0 0 0 0 0 0 0 0 0 0 0 0 0 0 0 0 0
0 0 0 0 0 0 0 0 0 0 0 0 0 0 0 0 0 0 0 0 0 0 0 0 0 0 0 0 0 0 0 0 0 0 0 0 0 0 0 0 0 0 0 0 0 0 0 0 0
0 0 0 0 0 0 0 0 0 0 0 0 0 0 0 0 0 0 0 0 0 0 0 0 0 0 0 0 0 0 0 0 0 0 0 0 0 0 0 0 0 0 0 0 0 0 0 0 0
0 0 0 0 0 0 0 0 0 0 0 0 0 0 0 0 0 0 0 0 0 0 0 0 0 0 0 0 0 0 0 0 0 0 0 0 0 0 0 0 0 0 0 0 0 0 0 0 0